Hourly Data Report for September 14, 2017

All times are specified in Local Standard Time (LST). Add 1 hour to adjust for Daylight Saving Time where and when it is observed.

MISCOU ISLAND (AUT)
NEW BRUNSWICK

48°00'32.002" N
64°29'39.008" W
4.00 m
8103050
71719
WMI

Download Data

Hourly Data (September 2017)
Hourly Data Report for September 14, 2017
Temp Definition
°C
Dew Point Temp Definition
°C
Rel Hum Definition
%
Wind Dir Definition
10's deg

Wind Spd Definition
km/h
Visibility Definition
km
Stn Press Definition
kPa
Hmdx Definition


Wind Chill Definition


Weather Definition


TIME
00:00 17.9 13.0 73 24 24   100.21     LegendNANA
01:00 18.4 13.1 72 25 27   100.23     LegendNANA
02:00 18.2 13.1 72 26 20   100.26     LegendNANA
03:00 18.4 12.6 69 26 21   100.28     LegendNANA
04:00 16.6 12.4 76 24 17   100.34     LegendNANA
05:00 16.7 12.8 78 25 19   100.38     LegendNANA
06:00 15.8 12.9 83 24 15   100.43     LegendNANA
07:00 17.0 13.4 79 26 15   100.52     LegendNANA
08:00 18.3 13.4 73 26 14   100.58     LegendNANA
09:00 17.8 13.6 76 32 9   100.64     LegendNANA
10:00 18.5 13.6 74 27 9   100.68     LegendNANA
11:00 20.3 14.4 69 25 15   100.67     LegendNANA
12:00 21.0 13.9 64 24 25   100.66     LegendNANA
13:00 21.4 12.3 56 24 26   100.65     LegendNANA
14:00 21.4 12.1 56 25 28   100.67     LegendNANA
15:00 21.5 11.8 54 25 29   100.68     LegendNANA
16:00 21.8 10.9 50 26 21   100.71     LegendNANA
17:00 15.2 11.1 76 8 18   100.82     LegendNANA
18:00 14.3 10.3 77 8 20   100.91     LegendNANA
19:00 13.9 9.9 77 7 20   101.03     LegendNANA
20:00 13.4 10.1 81 9 14   101.11     LegendNANA
21:00 13.2 10.1 81 10 12   101.18     LegendNANA
22:00 12.9 10.2 84 12 8   101.25     LegendNANA
23:00 12.8 10.2 84 11 7   101.34     LegendNANA

Notes on Data Quality.

Legend

  • E = Estimated
  • M = Missing
  • NA = Not Available
  • ‡ = Partner data that is not subject to review by the National Climate Archives
Date modified: